Location: Alvis C Story Elementary School
(33.0968°N, 96.6364°W)
Time: 09:09:55
(UTC+00:00)

Cosmos 44 - Visible Passes

Search period start: 26 June 2022 00:00
Search period end: 06 July 2022 00:00
Orbit: 594 x 767 km, 65.1° (Epoch: 25 June)

Date Brightness Start Highest point End Pass type
(mag) Time Alt. Az. Time Alt. Az. Time Alt. Az.
26 Jun 3.4 08:27:54 65° ENE 08:27:54 65° ENE 08:31:57 10° NNE visible
26 Jun 5.5 10:07:22 10° WNW 10:08:57 11° NW 10:10:31 10° NNW visible
27 Jun 5.5 07:25:36 17° ENE 07:25:36 17° ENE 07:27:04 10° ENE visible
27 Jun 4.2 09:04:00 31° WNW 09:04:27 32° WNW 09:08:33 10° N visible
28 Jun 4.1 08:01:39 46° NE 08:01:39 46° NE 08:04:54 10° NNE visible
28 Jun 5.6 09:41:03 10° WNW 09:41:56 10° NW 09:42:49 10° NW visible
29 Jun 5.7 06:59:16 14° ENE 06:59:16 14° ENE 07:00:09 10° ENE visible
29 Jun 4.5 08:37:40 29° NW 08:37:40 29° NW 08:41:24 10° N visible
30 Jun 4.6 07:35:13 34° NNE 07:35:13 34° NNE 07:37:50 10° NNE visible
01 Jul 5.9 06:32:45 12° ENE 06:32:45 12° ENE 06:33:11 10° NE visible
01 Jul 4.8 08:11:08 25° NW 08:11:08 25° NW 08:14:15 10° N visible
02 Jul 5.0 07:08:38 28° NNE 07:08:38 28° NNE 07:10:45 10° NNE visible
03 Jul 5.9 06:06:04 11° NE 06:06:04 11° NE 06:06:13 10° NE visible
03 Jul 5.2 07:44:27 22° NNW 07:44:27 22° NNW 07:47:04 10° N visible
04 Jul 5.2 06:41:50 24° NNE 06:41:50 24° NNE 06:43:40 10° NNE visible
05 Jul 5.9 05:39:11 10° NE 05:39:11 10° NE 05:39:14 10° NE visible
05 Jul 5.4 07:17:34 20° NNW 07:17:34 20° NNW 07:19:53 10° N visible
